�������l�o���
Date,Time,MP-1(��Sv/h),MP-2(��Sv/h),MP-3(��Sv/h),MP-4(��Sv/h),MP-5(��Sv/h),MP-6(��Sv/h),MP-7(��Sv/h),MP-8(��Sv/h),����,����(m/s),���J
2023/02/04,00:00,0.565,0.819,0.517,1.050,0.726,0.323,0.584,0.557,���k��,3.1,��
2023/02/04,00:10,0.565,0.819,0.515,1.054,0.726,0.323,0.584,0.555,���k��,3.1,��
2023/02/04,00:20,0.563,0.820,0.515,1.052,0.724,0.322,0.584,0.555,���k��,3.3,��
2023/02/04,00:30,0.564,0.818,0.516,1.052,0.726,0.321,0.584,0.556,���k��,3.8,��
2023/02/04,00:40,0.566,0.820,0.517,1.053,0.724,0.321,0.584,0.557,���k��,3.7,��
2023/02/04,00:50,0.563,0.820,0.516,1.053,0.726,0.322,0.584,0.556,���k��,2.3,��
2023/02/04,01:00,0.565,0.820,0.515,1.054,0.726,0.322,0.583,0.556,���쐼,1.8,��
2023/02/04,01:10,0.565,0.820,0.515,1.053,0.725,0.321,0.585,0.555,�쐼,1.9,��
2023/02/04,01:20,0.564,0.820,0.516,1.053,0.725,0.324,0.584,0.555,�쐼,2.0,��
2023/02/04,01:30,0.564,0.819,0.515,1.054,0.725,0.323,0.584,0.556,��,1.4,��
2023/02/04,01:40,0.564,0.820,0.516,1.053,0.725,0.323,0.585,0.556,��,1.4,��
2023/02/04,01:50,0.564,0.820,0.515,1.055,0.727,0.323,0.584,0.556,���k��,2.3,��
2023/02/04,02:00,0.564,0.820,0.515,1.053,0.726,0.322,0.584,0.556,��,1.8,��
2023/02/04,02:10,0.564,0.818,0.514,1.052,0.724,0.323,0.584,0.556,��,1.4,��
2023/02/04,02:20,0.565,0.820,0.516,1.053,0.725,0.321,0.585,0.557,��,0.6,��
2023/02/04,02:30,0.564,0.819,0.515,1.052,0.725,0.322,0.583,0.556,���k��,1.9,��
2023/02/04,02:40,0.565,0.818,0.515,1.054,0.726,0.323,0.584,0.555,��,1.5,��
2023/02/04,02:50,0.564,0.820,0.515,1.054,0.725,0.323,0.582,0.556,���쐼,0.9,��
2023/02/04,03:00,0.563,0.820,0.513,1.054,0.726,0.322,0.584,0.557,���쐼,1.2,��
2023/02/04,03:10,0.564,0.820,0.516,1.053,0.725,0.323,0.584,0.555,�쐼,1.2,��
2023/02/04,03:20,0.564,0.819,0.515,1.054,0.725,0.322,0.584,0.556,��,1.5,��
2023/02/04,03:30,0.564,0.820,0.516,1.054,0.724,0.321,0.584,0.556,��,2.0,��
2023/02/04,03:40,0.562,0.821,0.516,1.051,0.723,0.323,0.583,0.556,��,2.0,��
2023/02/04,03:50,0.564,0.820,0.516,1.052,0.727,0.322,0.584,0.555,���쐼,1.2,��
2023/02/04,04:00,0.562,0.819,0.515,1.052,0.725,0.322,0.584,0.554,���쐼,1.7,��
2023/02/04,04:10,0.564,0.820,0.515,1.053,0.726,0.322,0.584,0.554,���k��,1.5,��
2023/02/04,04:20,0.565,0.818,0.514,1.052,0.724,0.322,0.582,0.556,���k��,1.7,��
2023/02/04,04:30,0.565,0.820,0.515,1.055,0.725,0.322,0.583,0.555,���k��,2.3,��
2023/02/04,04:40,0.563,0.820,0.516,1.054,0.727,0.322,0.583,0.554,��,2.3,��
2023/02/04,04:50,0.564,0.820,0.514,1.052,0.725,0.323,0.585,0.556,��,1.8,��
2023/02/04,05:00,0.565,0.818,0.514,1.055,0.725,0.322,0.583,0.555,��,2.0,��
2023/02/04,05:10,0.563,0.819,0.516,1.053,0.724,0.321,0.583,0.556,��,2.8,��
2023/02/04,05:20,0.564,0.819,0.517,1.054,0.725,0.322,0.583,0.556,��,2.3,��
2023/02/04,05:30,0.563,0.819,0.515,1.052,0.723,0.323,0.583,0.555,���k��,2.2,��
2023/02/04,05:40,0.565,0.821,0.516,1.053,0.724,0.321,0.584,0.556,���k��,2.5,��
2023/02/04,05:50,0.563,0.818,0.516,1.053,0.725,0.322,0.584,0.556,���k��,2.3,��
2023/02/04,06:00,0.564,0.821,0.514,1.052,0.724,0.321,0.584,0.557,���k��,2.3,��
2023/02/04,06:10,0.564,0.819,0.514,1.053,0.724,0.323,0.585,0.556,���k��,1.9,��
2023/02/04,06:20,0.564,0.820,0.516,1.053,0.723,0.322,0.584,0.554,���k��,1.8,��
2023/02/04,06:30,0.565,0.819,0.514,1.054,0.724,0.321,0.584,0.556,��,2.0,��
2023/02/04,06:40,0.563,0.819,0.515,1.053,0.724,0.322,0.584,0.555,��,1.7,��
2023/02/04,06:50,0.563,0.821,0.514,1.052,0.725,0.321,0.584,0.555,�쐼,1.9,��
2023/02/04,07:00,0.563,0.820,0.516,1.053,0.725,0.322,0.584,0.556,���쐼,1.2,��
2023/02/04,07:10,0.564,0.818,0.516,1.052,0.725,0.322,0.583,0.556,��쐼,0.9,��
2023/02/04,07:20,0.563,0.819,0.515,1.053,0.726,0.323,0.584,0.556,-,CALM,��
2023/02/04,07:30,0.563,0.819,0.516,1.054,0.724,0.322,0.584,0.556,�k�k��,0.8,��
2023/02/04,07:40,0.564,0.819,0.515,1.053,0.724,0.322,0.584,0.556,�k�k��,1.7,��
2023/02/04,07:50,0.565,0.818,0.514,1.053,0.725,0.323,0.583,0.556,�k��,0.9,��
2023/02/04,08:00,0.565,0.819,0.515,1.054,0.724,0.322,0.584,0.555,�k�k��,0.9,��
2023/02/04,08:10,0.566,0.820,0.515,1.052,0.724,0.324,0.585,0.556,�k�k��,1.1,��
2023/02/04,08:20,0.564,0.820,0.516,1.053,0.724,0.322,0.584,0.557,�k,0.8,��
2023/02/04,08:30,0.564,0.819,0.517,1.054,0.725,0.322,0.583,0.556,���쐼,0.6,��
2023/02/04,08:40,0.565,0.819,0.516,1.054,0.724,0.323,0.585,0.558,-,CALM,��
2023/02/04,08:50,0.565,0.820,0.516,1.054,0.726,0.322,0.586,0.556,�k��,0.6,��
2023/02/04,09:00,0.566,0.819,0.515,1.054,0.726,0.322,0.584,0.557,���k��,0.6,��
2023/02/04,09:10,0.565,0.821,0.516,1.053,0.726,0.323,0.586,0.556,��쓌,0.6,��
2023/02/04,09:20,0.567,0.819,0.518,1.054,0.726,0.324,0.584,0.555,-,CALM,��
2023/02/04,09:30,0.565,0.820,0.517,1.054,0.725,0.322,0.585,0.556,��쐼,1.1,��
2023/02/04,09:40,0.567,0.821,0.517,1.053,0.724,0.323,0.586,0.557,-,CALM,��
2023/02/04,09:50,0.566,0.822,0.516,1.053,0.725,0.322,0.586,0.555,���쓌,1.7,��
2023/02/04,10:00,0.567,0.819,0.516,1.053,0.722,0.323,0.585,0.556,�쓌,1.7,��
2023/02/04,10:10,0.566,0.819,0.517,1.054,0.726,0.324,0.584,0.555,���쓌,2.2,��
2023/02/04,10:20,0.567,0.821,0.516,1.056,0.725,0.323,0.585,0.556,��,2.0,��
2023/02/04,10:30,0.567,0.819,0.516,1.052,0.727,0.322,0.585,0.555,�쓌,2.3,��
2023/02/04,10:40,0.566,0.821,0.517,1.055,0.724,0.323,0.583,0.559,���쓌,2.3,��
2023/02/04,10:50,0.567,0.820,0.518,1.053,0.729,0.323,0.586,0.557,���쓌,3.3,��
2023/02/04,11:00,0.569,0.817,0.516,1.057,0.726,0.323,0.584,0.556,�쓌,3.9,��
2023/02/04,11:10,0.566,0.818,0.517,1.056,0.726,0.322,0.584,0.557,���쓌,3.1,��
2023/02/04,11:20,0.567,0.820,0.516,1.056,0.728,0.324,0.583,0.556,�쓌,3.8,��
2023/02/04,11:30,0.568,0.819,0.516,1.056,0.726,0.324,0.584,0.557,�쓌,4.9,��
2023/02/04,11:40,0.568,0.819,0.517,1.055,0.728,0.322,0.585,0.557,�쓌,5.4,��
2023/02/04,11:50,0.568,0.821,0.517,1.054,0.728,0.324,0.583,0.556,��쓌,5.2,��
2023/02/04,12:00,0.569,0.819,0.516,1.056,0.729,0.324,0.585,0.558,��쓌,6.7,��
2023/02/04,12:10,0.570,0.822,0.515,1.054,0.726,0.324,0.585,0.558,��쓌,7.0,��
2023/02/04,12:20,0.568,0.822,0.518,1.054,0.727,0.322,0.583,0.557,��쓌,7.5,��
2023/02/04,12:30,0.568,0.821,0.516,1.056,0.725,0.324,0.584,0.558,��쓌,7.3,��
2023/02/04,12:40,0.568,0.821,0.517,1.055,0.728,0.324,0.584,0.557,��쓌,8.5,��
2023/02/04,12:50,0.568,0.820,0.516,1.054,0.727,0.324,0.586,0.557,��쓌,8.1,��
2023/02/04,13:00,0.568,0.822,0.515,1.055,0.728,0.324,0.585,0.560,��쓌,8.9,��
2023/02/04,13:10,0.569,0.821,0.518,1.056,0.726,0.324,0.584,0.556,��쓌,9.6,��
2023/02/04,13:20,0.570,0.821,0.518,1.056,0.727,0.324,0.586,0.558,��쓌,8.6,��
2023/02/04,13:30,0.568,0.823,0.517,1.055,0.726,0.325,0.585,0.558,��쓌,10.2,��
2023/02/04,13:40,0.568,0.820,0.517,1.057,0.726,0.325,0.585,0.557,��쓌,10.3,��
2023/02/04,13:50,0.569,0.822,0.517,1.056,0.727,0.324,0.586,0.557,��쓌,10.7,��
2023/02/04,14:00,0.568,0.822,0.518,1.057,0.728,0.325,0.585,0.555,��쓌,11.0,��
2023/02/04,14:10,0.570,0.822,0.517,1.054,0.730,0.325,0.584,0.555,��쓌,9.2,��
2023/02/04,14:20,0.570,0.822,0.517,1.057,0.728,0.325,0.584,0.556,��쓌,9.5,��
2023/02/04,14:30,0.569,0.821,0.517,1.057,0.729,0.325,0.585,0.556,��쓌,9.3,��
2023/02/04,14:40,0.570,0.819,0.517,1.056,0.729,0.325,0.585,0.555,��,9.8,��
2023/02/04,14:50,0.570,0.821,0.517,1.056,0.729,0.324,0.586,0.556,��쓌,10.2,��
2023/02/04,15:00,0.569,0.820,0.518,1.057,0.729,0.324,0.586,0.555,��쓌,10.5,��
2023/02/04,15:10,0.570,0.822,0.517,1.058,0.728,0.325,0.586,0.556,��쓌,11.3,��
2023/02/04,15:20,0.570,0.823,0.519,1.056,0.729,0.324,0.587,0.557,��,10.6,��
2023/02/04,15:30,0.570,0.824,0.519,1.057,0.729,0.324,0.585,0.557,��쓌,11.4,��
2023/02/04,15:40,0.571,0.823,0.518,1.055,0.729,0.326,0.589,0.557,��쓌,11.0,��
2023/02/04,15:50,0.571,0.822,0.519,1.058,0.730,0.324,0.589,0.557,��쓌,9.7,��
2023/02/04,16:00,0.570,0.824,0.518,1.058,0.729,0.324,0.588,0.559,��쓌,11.4,��
2023/02/04,16:10,0.569,0.821,0.517,1.057,0.729,0.325,0.587,0.557,��쓌,10.5,��
2023/02/04,16:20,0.570,0.823,0.516,1.057,0.729,0.325,0.587,0.557,��,9.4,��
2023/02/04,16:30,0.569,0.822,0.520,1.054,0.730,0.324,0.589,0.558,��,8.2,��
2023/02/04,16:40,0.570,0.823,0.518,1.055,0.731,0.325,0.589,0.556,��,8.9,��
2023/02/04,16:50,0.571,0.822,0.517,1.055,0.731,0.324,0.589,0.558,��,7.9,��
2023/02/04,17:00,0.570,0.824,0.518,1.058,0.728,0.326,0.586,0.558,��,10.0,��
2023/02/04,17:10,0.570,0.821,0.517,1.054,0.730,0.325,0.589,0.558,��,8.8,��
2023/02/04,17:20,0.571,0.823,0.518,1.056,0.731,0.324,0.587,0.556,��,8.2,��
2023/02/04,17:30,0.570,0.820,0.518,1.056,0.728,0.324,0.586,0.556,��,7.6,��
2023/02/04,17:40,0.570,0.822,0.518,1.057,0.731,0.323,0.587,0.557,��,8.0,��
2023/02/04,17:50,0.569,0.824,0.518,1.055,0.728,0.324,0.588,0.558,��,6.9,��
2023/02/04,18:00,0.571,0.822,0.519,1.055,0.729,0.326,0.586,0.558,��,6.9,��
2023/02/04,18:10,0.568,0.821,0.518,1.056,0.730,0.325,0.587,0.557,��쐼,5.8,��
2023/02/04,18:20,0.570,0.822,0.516,1.056,0.728,0.325,0.587,0.557,��쐼,4.7,��
2023/02/04,18:30,0.566,0.824,0.517,1.056,0.730,0.324,0.587,0.559,��쐼,3.2,��
2023/02/04,18:40,0.570,0.823,0.518,1.054,0.730,0.325,0.586,0.557,�쐼,4.2,��
2023/02/04,18:50,0.569,0.822,0.518,1.059,0.729,0.324,0.586,0.556,�쐼,3.7,��
2023/02/04,19:00,0.568,0.822,0.517,1.055,0.728,0.324,0.588,0.558,��,3.5,��
2023/02/04,19:10,0.569,0.823,0.518,1.055,0.729,0.324,0.586,0.558,��,4.3,��
2023/02/04,19:20,0.569,0.823,0.516,1.054,0.729,0.325,0.587,0.557,���k��,3.8,��
2023/02/04,19:30,0.569,0.824,0.519,1.055,0.729,0.324,0.587,0.556,�k��,3.2,��
2023/02/04,19:40,0.568,0.823,0.518,1.055,0.730,0.325,0.586,0.557,�k�k��,4.2,��
2023/02/04,19:50,0.567,0.824,0.518,1.057,0.728,0.325,0.585,0.557,�k��,4.2,��
2023/02/04,20:00,0.569,0.823,0.517,1.055,0.729,0.324,0.586,0.557,�k��,4.9,��
2023/02/04,20:10,0.569,0.823,0.517,1.056,0.730,0.326,0.586,0.557,���k��,6.3,��
2023/02/04,20:20,0.569,0.823,0.518,1.055,0.728,0.325,0.586,0.558,�k��,5.8,��
2023/02/04,20:30,0.570,0.823,0.517,1.056,0.729,0.325,0.588,0.557,�k��,7.3,��
2023/02/04,20:40,0.570,0.822,0.517,1.056,0.727,0.325,0.586,0.556,�k��,5.5,��
2023/02/04,20:50,0.568,0.822,0.517,1.058,0.727,0.324,0.587,0.555,�k��,4.8,��
2023/02/04,21:00,0.567,0.824,0.517,1.056,0.730,0.325,0.587,0.557,�k��,5.5,��
2023/02/04,21:10,0.570,0.821,0.516,1.055,0.727,0.324,0.587,0.556,���k��,6.1,��
2023/02/04,21:20,0.570,0.822,0.517,1.056,0.730,0.324,0.586,0.556,�k��,5.1,��
2023/02/04,21:30,0.568,0.820,0.516,1.054,0.728,0.323,0.586,0.556,�k�k��,4.8,��
2023/02/04,21:40,0.568,0.821,0.517,1.056,0.728,0.324,0.586,0.556,�k,6.9,��
2023/02/04,21:50,0.568,0.821,0.519,1.055,0.727,0.324,0.587,0.557,�k,7.2,��
2023/02/04,22:00,0.568,0.822,0.517,1.054,0.729,0.323,0.585,0.555,�k�k��,8.6,��
2023/02/04,22:10,0.568,0.821,0.517,1.054,0.730,0.323,0.586,0.557,�k�k��,8.4,��
2023/02/04,22:20,0.568,0.822,0.518,1.056,0.729,0.322,0.587,0.556,�k�k��,9.0,��
2023/02/04,22:30,0.567,0.822,0.516,1.057,0.728,0.324,0.586,0.558,�k�k��,7.7,��
2023/02/04,22:40,0.567,0.822,0.516,1.056,0.727,0.322,0.586,0.558,�k�k��,6.4,��
2023/02/04,22:50,0.569,0.823,0.515,1.058,0.727,0.323,0.585,0.557,�k�k��,6.3,��
2023/02/04,23:00,0.567,0.823,0.517,1.056,0.729,0.323,0.585,0.556,�k�k��,6.3,��
2023/02/04,23:10,0.565,0.823,0.517,1.055,0.729,0.324,0.586,0.556,�k�k��,7.0,��
2023/02/04,23:20,0.566,0.820,0.516,1.055,0.728,0.323,0.587,0.555,�k�k��,6.9,��
2023/02/04,23:30,0.567,0.821,0.514,1.055,0.727,0.323,0.586,0.556,�k��,5.7,��
2023/02/04,23:40,0.566,0.823,0.515,1.055,0.728,0.323,0.585,0.556,�k��,6.2,��
2023/02/04,23:50,0.565,0.820,0.514,1.053,0.729,0.324,0.586,0.556,�k��,5.7,��
